Theta_e
339 340 342 344 344 343 343 344 343 343 343 342 342 342 343 343 344 344 345 345 344 345 347 348 347 347 347 347 347 347 346 345 344 343 342 342 343 342 341 340 338 338 339 339 340 342 343 343 343 345 346 347 348 349 348 349 348 347 347 347 346 346 345 344 343 342 342 340 339 337 328 315 309 309
336 337 339 342 344 342 343 343 343 343 342 343 343 343 343 344 344 344 344 344 344 346 348 347 347 346 346 346 347 347 347 347 345 345 345 343 342 343 343 343 341 338 338 339 340 340 341 341 341 343 344 346 347 348 347 349 349 349 348 347 346 345 345 344 343 342 341 339 338 335 325 315 309 309
336 335 335 338 342 342 342 343 343 344 343 343 344 344 343 344 345 345 344 344 345 347 347 347 347 347 347 347 347 347 347 348 346 346 346 345 344 344 344 345 343 339 338 339 340 340 340 340 340 340 341 343 345 346 347 347 348 348 347 347 346 345 345 344 343 342 340 340 338 333 323 313 308 309
338 337 336 335 338 342 343 343 344 344 344 345 345 345 345 346 345 344 343 343 344 345 346 347 348 348 348 349 349 349 348 348 347 346 347 347 346 346 345 345 343 340 338 339 339 339 340 339 339 339 339 340 342 344 345 346 346 346 346 347 345 344 345 344 343 342 341 340 338 331 321 312 308 310
338 338 339 338 338 341 343 343 344 344 344 345 345 345 346 346 345 345 344 344 344 345 346 347 348 348 348 348 348 348 348 348 348 347 348 348 347 347 346 345 343 342 341 340 339 341 340 340 339 339 339 339 340 342 344 345 345 345 346 345 344 344 344 342 342 342 340 340 336 327 318 311 309 310
338 337 339 340 340 341 343 343 343 343 343 344 345 346 345 345 345 344 346 346 345 345 346 347 348 348 347 347 348 348 348 348 348 348 348 348 348 348 347 345 344 344 343 341 340 341 341 341 340 339 339 339 339 340 342 344 344 344 344 343 342 343 343 341 341 341 340 339 334 325 316 310 308 309
339 337 336 339 340 341 341 342 342 342 342 342 343 344 345 346 344 343 344 344 345 346 346 347 347 347 347 348 347 348 348 347 347 347 348 348 348 347 346 345 343 343 343 343 342 342 341 341 341 340 340 339 338 339 340 342 342 342 343 344 342 342 342 341 340 340 340 338 332 323 313 308 308 309
339 338 336 336 339 340 340 341 342 343 343 342 342 342 344 345 345 345 344 344 345 346 347 347 346 347 348 349 349 349 348 347 347 347 348 347 348 347 346 345 343 343 343 343 343 344 342 342 341 341 341 340 340 340 339 340 341 341 343 346 344 343 342 341 340 340 339 337 332 320 310 307 309 309
338 338 338 337 338 340 340 340 340 342 343 342 341 342 344 344 346 346 346 345 346 347 347 346 346 347 348 349 350 350 349 348 347 348 347 347 347 346 345 344 343 342 342 343 344 345 344 343 343 342 342 341 341 340 340 340 340 341 344 345 343 342 342 341 340 339 338 336 329 316 307 307 309 309
337 339 340 340 340 340 340 339 338 340 340 339 340 344 346 346 346 346 346 346 346 347 346 346 347 348 348 349 350 351 351 350 349 348 348 348 347 345 344 343 344 343 343 344 344 345 345 345 345 345 343 342 342 341 341 339 339 340 342 343 342 343 342 340 339 337 336 334 324 312 307 308 309 310
338 340 341 341 342 341 340 339 338 338 339 339 341 345 347 346 347 346 347 347 347 347 347 347 347 347 347 348 350 350 351 351 350 349 349 348 346 344 343 343 344 345 345 346 345 345 346 345 346 346 345 344 343 342 341 340 339 339 340 342 343 343 340 338 337 337 337 331 319 309 307 308 309 310
340 342 344 344 344 343 342 341 340 340 339 340 343 345 347 347 347 347 347 347 348 347 347 347 347 347 347 347 349 351 352 351 350 348 348 348 347 346 346 346 346 346 347 347 347 346 347 346 346 346 346 346 345 344 342 341 341 341 342 343 343 341 338 337 337 338 336 328 315 308 308 308 309 311
344 345 347 348 348 346 343 342 343 342 341 342 344 345 347 348 347 347 347 347 347 348 348 347 347 347 347 347 349 350 350 349 349 349 349 349 348 348 348 348 347 347 347 347 347 347 347 346 346 346 346 346 345 344 343 342 342 343 342 342 341 339 338 336 336 336 333 323 313 308 308 308 309 311
345 346 348 349 348 347 346 346 344 343 342 343 344 345 347 347 348 348 348 348 348 348 348 348 348 348 348 348 348 349 349 350 351 350 350 349 349 350 350 350 348 348 347 347 346 346 346 346 346 346 346 346 345 345 345 343 341 341 341 340 340 338 337 336 336 335 329 320 313 309 308 309 311 313
345 345 346 347 347 347 348 347 344 342 342 342 344 346 347 347 347 347 347 348 348 348 348 347 348 348 348 348 348 348 348 350 350 349 348 348 349 349 350 350 349 348 347 347 346 346 347 346 346 346 346 346 346 346 345 344 342 341 340 339 339 338 338 337 337 334 327 318 313 310 309 310 312 314
344 345 346 347 348 348 348 346 344 343 343 342 343 345 347 348 347 347 347 347 347 347 348 347 348 349 349 349 349 348 347 347 347 348 347 346 346 348 349 350 349 348 348 348 348 347 347 347 347 347 347 347 347 346 345 344 343 342 341 340 339 339 338 338 337 335 328 319 313 310 310 311 313 315
344 345 345 347 348 347 345 344 345 345 344 345 346 345 345 347 347 347 348 348 348 348 348 348 348 348 349 349 349 347 346 346 346 347 346 343 342 344 346 346 346 347 348 348 348 347 347 348 348 348 347 347 346 346 345 344 344 343 342 341 340 339 339 338 337 335 330 321 313 311 311 312 314 316
345 346 347 347 347 346 344 344 346 345 344 345 348 348 347 347 347 347 348 348 349 349 349 349 348 348 347 348 347 346 346 347 346 344 344 342 340 340 341 343 345 347 348 348 348 347 346 347 348 348 347 347 346 345 345 344 344 344 343 342 342 340 339 338 337 336 330 321 313 311 312 313 315 316
345 346 347 347 347 346 344 344 346 347 345 345 347 348 349 349 349 349 349 350 350 350 350 349 349 348 347 347 346 345 344 344 343 342 341 339 339 339 341 343 345 346 347 348 349 348 347 347 347 347 347 347 346 345 344 344 344 344 343 343 342 341 340 338 337 335 329 321 314 312 313 314 315 316
344 345 344 345 345 345 344 345 347 348 348 347 347 347 347 348 348 349 349 349 349 349 349 349 349 350 349 349 348 345 344 342 340 340 340 339 339 340 342 343 344 344 346 347 348 348 348 347 347 347 346 346 346 345 344 344 343 343 343 343 343 341 339 337 335 333 327 319 314 312 313 315 316 317
343 342 342 343 344 345 346 346 347 348 348 347 347 347 347 347 348 349 349 349 348 348 349 349 349 350 350 350 349 347 345 344 344 344 343 342 341 343 343 344 343 343 343 344 345 348 348 347 347 347 347 347 346 346 345 344 344 343 342 342 342 340 338 336 334 332 326 319 315 314 314 315 316 317
342 342 343 342 343 345 346 346 346 347 346 346 345 345 345 345 346 345 345 346 347 347 347 348 349 350 350 350 349 347 346 346 346 347 346 344 344 345 345 344 344 345 345 344 345 348 348 347 347 348 348 347 346 346 346 344 344 343 342 342 340 339 337 335 331 328 324 318 316 314 315 316 318 319
342 342 342 342 342 343 345 347 347 346 346 346 345 344 344 345 344 342 341 342 342 342 343 344 346 347 349 349 349 347 346 346 346 346 345 345 345 346 345 346 347 348 347 345 346 348 347 347 347 347 347 347 346 345 345 344 343 342 342 341 340 339 337 333 328 325 321 317 314 314 315 318 319 320
343 342 342 343 343 343 345 346 347 346 346 346 346 345 345 345 344 341 342 343 343 343 343 342 342 344 346 347 348 347 346 346 345 344 344 344 346 346 347 347 348 349 348 346 347 348 348 348 348 347 346 346 346 345 344 344 343 342 341 341 340 339 336 331 326 322 318 315 314 315 317 319 320 321
344 343 344 344 344 344 345 345 345 346 346 346 347 346 345 343 342 341 342 343 343 344 343 342 342 343 343 344 346 347 347 346 345 343 343 342 344 346 347 348 349 349 347 346 347 349 349 349 349 349 348 346 346 346 345 344 343 342 340 340 339 337 335 329 324 319 315 314 314 316 318 320 320 319
345 345 345 345 345 345 345 345 345 346 346 347 348 347 346 345 344 344 343 342 343 344 344 344 344 345 344 344 344 345 346 346 345 344 344 342 343 344 345 347 349 349 348 347 348 348 349 350 350 348 347 347 346 346 345 344 343 341 340 339 337 334 331 326 321 316 314 314 315 317 317 316 314 313
346 345 345 345 345 345 345 345 346 346 346 347 347 348 347 348 348 347 345 345 345 346 346 346 346 346 346 346 346 346 346 346 346 346 345 345 345 345 345 346 348 348 348 348 349 349 349 350 350 349 348 347 347 347 346 345 344 342 341 341 337 333 329 323 318 316 316 316 317 316 313 311 310 310
345 345 345 345 344 344 344 345 346 346 347 347 347 348 348 348 349 348 347 347 347 347 347 347 347 347 347 347 347 347 347 347 347 347 347 346 346 345 345 345 346 347 348 349 349 349 349 350 349 348 347 347 348 347 347 346 345 344 343 341 337 333 326 319 315 316 318 317 315 312 310 310 310 310
342 342 342 343 342 342 342 343 343 344 345 346 346 347 348 348 349 349 349 348 347 347 347 347 347 346 347 347 347 347 347 348 348 348 348 348 347 346 345 346 346 347 347 347 347 347 348 349 348 348 349 348 348 348 348 347 345 344 343 341 337 331 323 317 317 318 317 314 312 311 311 312 312 312
342 342 341 341 341 341 341 341 341 341 341 342 344 345 346 347 348 349 349 348 348 348 348 347 348 347 347 347 348 347 348 348 348 348 349 349 349 348 347 347 348 348 348 348 347 346 347 347 348 349 349 348 348 349 348 346 343 342 342 340 336 330 321 318 319 317 313 311 311 312 313 313 312 313
345 344 344 344 343 343 342 343 343 342 342 342 343 344 345 345 346 348 348 347 347 347 347 345 346 347 347 348 348 348 347 347 347 347 347 347 348 348 348 349 349 347 347 346 346 346 347 347 348 349 349 348 348 349 348 346 344 342 341 337 334 330 325 321 319 314 311 311 312 313 313 313 313 314
342 342 342 342 343 343 344 344 345 345 345 345 345 345 345 345 346 347 348 347 345 345 345 345 345 346 347 347 347 347 347 346 345 346 346 345 345 346 348 350 350 347 346 345 344 345 347 348 349 349 348 347 348 348 347 346 342 340 338 335 331 328 326 324 319 313 311 312 313 313 313 313 314 316
336 336 336 336 337 338 339 340 341 342 344 345 345 346 347 347 347 348 348 347 345 345 347 347 346 346 346 346 345 345 345 345 345 346 347 347 347 347 348 350 350 348 347 346 344 346 348 349 348 347 347 347 346 345 345 343 337 333 331 331 329 326 323 322 319 314 312 313 313 314 314 315 316 317
336 336 335 335 335 335 335 336 336 336 337 338 339 340 342 343 344 345 346 347 346 346 346 346 346 346 346 345 344 344 345 345 346 347 347 347 348 348 348 349 348 347 347 347 347 347 348 349 348 345 343 342 341 340 339 338 335 331 329 328 328 326 322 320 317 314 313 314 314 314 315 315 316 317
338 338 338 338 338 339 338 338 338 338 338 337 336 336 337 338 339 339 341 343 345 345 346 345 345 345 346 346 345 345 345 346 345 345 345 346 347 347 348 348 347 347 348 348 348 348 348 349 348 345 341 338 337 335 333 331 331 331 330 327 326 326 323 319 317 315 314 314 314 315 315 316 316 318
337 338 339 339 340 340 339 339 339 339 339 339 338 337 337 338 338 338 338 339 341 342 345 345 345 346 346 346 345 344 344 344 342 342 342 342 344 346 347 348 347 347 347 347 348 348 348 348 348 345 342 338 335 333 331 329 328 328 328 328 327 327 323 320 317 316 316 314 314 315 315 316 317 318
336 337 338 338 339 339 339 339 338 338 339 339 339 339 338 338 339 340 341 341 341 341 343 344 344 344 344 344 344 343 342 341 340 339 338 338 339 341 343 344 345 345 346 347 346 347 347 347 347 345 341 337 335 332 328 326 326 327 327 327 327 326 323 319 318 317 316 315 314 315 316 317 318 319
336 336 337 337 338 338 338 338 338 338 339 339 340 340 340 339 339 340 341 342 342 342 343 343 343 341 341 342 343 342 341 340 339 339 339 339 340 341 341 342 343 344 345 346 346 346 346 345 345 343 341 338 336 332 327 325 326 327 326 325 325 325 322 320 319 318 316 315 315 317 318 319 319 319
336 336 336 336 335 335 336 337 338 338 338 338 339 339 340 339 339 339 340 341 342 343 343 343 342 342 342 342 341 340 339 340 340 341 341 342 342 342 343 343 344 344 345 345 344 344 343 342 340 339 337 336 335 333 330 329 329 328 326 324 323 322 320 319 318 317 316 317 318 319 320 319 319 319
336 336 335 335 334 334 335 336 336 337 337 338 338 339 339 339 340 341 341 342 341 341 341 341 341 342 341 341 340 340 340 340 340 341 342 342 342 343 343 343 344 344 344 343 342 341 340 337 335 333 331 330 330 331 330 329 328 327 326 323 321 319 318 318 319 318 318 319 320 320 320 320 320 320
335 335 335 335 335 335 335 335 335 335 335 336 336 338 338 338 339 339 340 340 339 339 338 338 339 339 339 339 340 340 340 340 340 341 341 342 342 343 342 343 343 343 342 340 339 339 337 334 331 330 329 328 329 329 329 328 327 326 324 321 319 319 319 319 320 321 321 321 321 321 321 321 320 320
331 332 332 332 333 333 334 334 335 335 335 335 335 335 335 336 336 337 337 337 337 337 337 337 337 337 337 337 338 339 339 339 339 340 340 340 340 339 339 339 339 339 338 337 336 335 334 332 330 328 327 328 328 328 328 327 325 323 322 321 320 321 321 321 321 322 321 321 321 321 321 321 320 319
324 324 324 325 327 328 329 331 332 333 334 334 334 334 334 335 335 335 335 336 336 336 336 336 335 335 335 336 337 337 337 336 337 337 337 337 337 336 336 336 336 336 335 335 334 332 331 330 329 327 326 326 327 326 326 324 322 321 321 320 320 322 323 323 323 323 322 321 321 321 321 320 320 319
320 320 320 319 319 319 321 323 326 329 330 332 333 333 333 333 334 334 334 335 334 334 335 335 334 334 334 335 335 335 336 335 335 335 335 334 334 334 334 333 333 333 332 332 332 330 329 328 328 326 325 325 325 324 323 322 321 320 321 321 322 323 323 323 323 323 322 322 321 321 321 320 319 318
325 325 324 323 321 319 317 317 319 323 326 329 331 331 331 332 332 333 333 333 333 333 333 333 333 333 333 333 333 333 334 334 333 333 334 333 333 332 332 331 331 331 330 330 330 329 329 327 326 325 324 323 323 323 323 323 323 322 323 323 323 323 323 323 323 322 322 322 321 321 320 319 317 316
Wind_Speed
18 17 16 14 12 10 9 9 9 9 9 9 8 9 10 9 9 10 11 11 10 9 9 9 8 8 9 9 10 9 8 8 7 6 6 6 7 7 8 9 9 8 8 7 7 7 7 8 8 8 8 9 9 9 8 9 11 10 7 6 6 7 7 8 9 8 5 4 5 6 5 5 6 7
20 19 18 17 15 12 11 11 12 12 12 11 9 10 12 11 10 11 11 10 10 10 10 10 9 9 9 10 10 10 9 9 8 8 8 7 7 8 9 10 10 9 9 9 8 8 8 8 9 8 9 9 9 9 9 9 13 14 12 9 8 8 8 7 8 7 6 6 6 6 6 6 7 8
20 20 20 19 18 16 13 12 12 13 14 12 8 8 11 12 11 12 12 12 12 12 11 11 10 10 10 10 10 10 10 10 9 9 9 9 8 9 10 11 10 8 7 8 8 8 9 9 9 9 9 10 10 10 10 11 14 16 15 13 11 10 7 6 7 8 7 8 8 7 6 7 9 9
20 20 20 20 20 19 16 14 13 14 16 15 12 9 9 12 13 14 14 14 13 12 12 11 11 10 11 11 11 11 11 11 11 10 10 10 10 10 11 11 9 7 7 8 8 8 8 9 9 9 9 10 11 11 12 13 15 15 15 14 13 10 7 6 7 8 8 9 9 8 8 9 10 10
20 20 19 19 21 21 18 17 16 16 18 18 16 12 10 11 13 16 18 17 14 12 12 11 11 11 11 11 12 12 12 12 11 11 12 12 11 12 12 11 9 9 10 9 7 7 8 8 9 9 8 9 10 11 12 14 15 14 13 13 11 9 8 7 8 9 9 10 10 9 10 11 11 11
22 21 19 19 21 22 22 21 19 20 21 20 19 16 13 11 11 14 17 18 16 14 13 12 11 11 11 11 11 12 12 12 12 12 13 13 13 13 13 11 10 11 11 9 7 7 7 8 8 9 9 8 8 10 12 14 14 12 11 11 10 10 10 9 9 10 10 11 11 12 12 12 11 11
24 24 22 20 20 22 23 23 22 22 22 22 21 20 19 16 14 14 16 17 18 17 15 13 12 11 11 11 11 12 12 13 13 13 14 14 15 14 14 12 11 11 11 10 8 8 8 8 8 8 9 8 8 9 10 13 14 11 11 13 11 11 12 10 8 10 11 12 13 14 13 12 13 13
26 26 25 23 22 22 23 23 23 23 23 22 21 21 21 20 17 14 13 14 17 19 18 15 12 11 11 12 12 13 13 14 14 14 15 16 16 16 15 14 13 12 12 11 10 9 9 9 9 9 9 9 9 9 10 11 13 11 12 14 12 12 12 9 8 11 12 13 14 14 14 14 14 14
27 27 27 26 24 24 24 25 24 25 25 24 22 21 20 19 17 15 14 13 14 17 17 15 12 11 11 13 14 14 15 15 14 15 16 16 17 18 17 16 15 14 13 12 12 11 11 10 10 11 11 10 10 11 10 11 11 11 14 16 14 13 12 11 11 12 13 14 15 15 15 15 15 15
27 27 27 26 24 24 25 26 26 26 27 25 22 19 18 18 17 17 17 15 13 14 15 14 13 13 13 14 15 16 16 16 16 16 17 18 19 19 18 17 16 15 14 14 14 14 13 13 13 13 13 12 11 12 11 11 11 12 15 16 15 14 14 14 14 14 14 15 16 16 17 16 16 16
27 27 27 25 24 24 24 25 25 25 25 25 22 20 18 18 18 18 18 16 15 15 15 15 15 15 15 16 17 17 17 17 18 18 19 20 21 20 20 19 18 17 17 16 16 16 16 16 16 16 14 13 12 12 12 12 12 12 14 16 16 16 16 16 15 15 15 16 17 18 18 17 17 17
28 27 26 24 24 24 24 24 23 23 23 23 23 21 19 18 19 20 20 19 19 18 17 17 18 17 18 19 19 19 19 20 20 19 20 20 20 21 20 20 20 20 19 19 19 19 19 19 18 17 16 14 13 13 13 12 13 14 15 17 18 18 18 17 17 16 16 17 19 19 19 19 18 18
28 28 27 25 25 24 23 22 21 22 23 23 23 23 21 20 19 20 20 21 21 21 21 20 20 20 21 21 21 21 21 20 19 18 19 20 20 21 21 22 22 22 22 22 22 21 21 20 20 19 18 16 14 13 13 11 15 18 19 20 20 19 18 18 17 16 17 18 20 20 20 19 19 19
28 29 29 28 26 24 22 21 20 20 23 25 25 24 23 23 22 21 21 21 21 22 22 22 22 23 23 23 22 23 22 20 19 18 18 19 20 21 22 23 24 23 23 23 23 22 22 21 21 20 19 18 15 14 13 13 15 19 20 20 19 18 17 16 14 15 17 19 20 21 21 20 20 20
26 26 27 27 26 24 22 22 20 19 21 25 26 26 25 24 25 24 24 23 23 23 24 25 24 25 25 25 24 23 21 20 19 19 18 18 20 21 23 24 24 23 22 22 23 22 22 22 22 22 21 20 18 16 15 15 15 16 17 18 17 17 16 15 14 15 18 21 21 21 21 21 21 21
25 24 24 24 24 24 23 22 20 18 18 21 25 27 27 26 25 26 25 25 25 26 26 27 27 26 26 26 25 24 23 22 21 20 19 19 20 21 23 24 25 22 21 22 23 23 23 23 24 23 23 21 19 18 18 17 17 17 17 18 18 17 16 16 15 16 19 21 22 22 22 22 22 22
25 23 23 24 25 25 24 21 20 20 19 19 21 24 27 28 28 27 26 25 26 26 27 28 29 29 29 28 28 27 26 24 23 22 22 22 22 23 24 25 24 22 22 22 23 24 24 25 25 25 24 23 21 21 20 19 19 20 20 20 20 19 18 17 17 18 20 22 23 23 23 24 23 23
26 24 24 26 27 27 25 23 22 22 22 22 21 21 24 26 27 27 27 26 27 28 28 29 30 31 31 32 32 31 30 30 29 28 27 27 26 26 26 25 24 23 24 23 24 26 26 26 26 26 25 24 24 23 22 21 21 22 22 23 23 22 21 20 19 19 21 23 24 24 25 25 24 24
29 27 27 28 30 29 27 25 23 22 22 23 24 23 24 24 25 26 27 27 28 29 29 30 29 29 29 30 32 32 32 32 32 31 30 29 28 28 27 27 27 27 27 26 26 29 29 27 28 28 26 26 26 25 24 24 23 23 23 25 26 25 24 23 22 22 23 24 25 26 26 25 25 25
30 30 30 30 30 29 27 25 23 22 21 22 24 26 27 27 27 28 28 28 29 29 29 29 29 28 27 26 27 28 29 29 29 28 28 29 29 29 30 30 31 31 30 30 30 31 31 31 30 30 28 28 28 28 27 26 25 24 24 25 27 27 26 25 24 24 24 25 26 27 27 26 26 25
28 28 28 28 28 28 27 26 24 23 22 22 24 25 26 28 29 30 30 29 29 29 30 30 29 29 27 26 26 25 25 25 24 24 26 28 29 30 32 33 34 34 33 33 32 32 33 33 32 31 31 30 30 30 29 28 27 26 26 26 27 28 27 26 26 26 26 27 28 28 27 27 27 26
30 29 29 29 29 30 30 29 27 26 25 26 26 27 28 29 31 32 31 31 31 31 31 31 31 31 30 29 29 27 26 25 24 25 27 28 29 31 33 34 34 35 35 34 32 32 34 35 33 33 32 32 33 33 32 31 29 28 28 29 29 29 29 28 28 28 28 29 29 29 29 28 28 27
30 30 30 30 31 32 32 31 30 29 29 29 30 30 31 33 34 35 34 33 33 33 33 33 34 34 33 32 31 30 28 26 26 27 28 28 30 32 34 34 34 35 36 35 32 33 35 35 35 35 34 34 35 34 33 33 32 31 31 31 32 31 30 30 29 29 29 30 30 30 30 29 29 28
31 31 31 32 32 32 33 34 35 34 33 32 32 32 33 35 37 38 37 36 36 35 35 35 34 34 33 33 32 32 30 28 28 29 29 29 31 32 33 34 36 37 36 34 32 34 35 35 36 36 36 35 36 35 34 33 32 32 32 33 34 34 33 31 31 30 30 31 31 31 30 29 29 28
32 32 32 31 31 32 33 35 37 37 36 35 34 33 34 35 35 36 37 37 37 36 36 35 35 34 33 33 33 33 32 31 31 31 31 31 32 33 33 34 36 38 36 34 34 35 36 37 38 37 37 37 37 37 36 35 33 33 32 33 35 36 35 34 33 32 33 33 33 32 30 29 28 26
31 32 32 32 31 32 33 34 36 37 37 36 36 35 35 34 33 33 33 34 33 34 34 34 34 34 33 33 33 34 35 35 34 34 34 34 34 35 34 34 36 37 36 35 35 37 38 39 39 38 37 38 38 38 38 38 37 35 33 34 36 38 36 35 35 35 36 35 34 31 28 27 26 24
32 32 33 33 33 33 33 34 35 36 37 38 37 36 35 34 34 32 32 32 32 33 34 35 35 35 34 34 34 35 36 36 37 37 36 36 36 36 36 35 36 37 37 37 38 40 41 41 40 40 40 40 39 39 40 40 39 37 35 36 38 39 39 37 37 36 35 34 31 28 27 27 25 23
33 34 34 34 34 35 35 36 36 37 38 39 39 38 37 36 35 34 34 34 34 35 36 37 38 38 37 37 37 37 37 37 38 37 37 37 37 37 38 38 37 38 38 40 41 42 43 43 43 43 43 42 41 41 42 42 41 39 38 38 40 42 41 37 35 34 33 31 30 29 29 28 26 24
35 36 36 37 37 37 38 38 39 39 40 40 40 40 39 39 38 38 38 38 37 38 38 39 39 39 39 39 38 38 39 40 40 41 40 39 38 38 39 40 40 40 40 41 42 43 44 45 46 46 45 44 43 43 44 44 43 41 41 41 42 42 39 34 33 33 32 31 31 31 28 26 25 26
37 38 39 40 40 41 41 42 42 43 43 43 43 43 43 43 42 42 41 40 40 41 41 41 41 41 41 40 39 40 41 42 42 42 41 41 41 40 40 41 41 41 41 42 43 44 46 47 48 48 47 46 46 46 47 47 45 43 42 42 41 39 37 36 35 34 32 32 31 28 24 24 25 25
35 36 38 39 40 42 43 44 45 46 47 47 47 47 47 46 46 45 43 41 41 43 43 42 43 43 43 43 43 43 44 44 44 43 42 43 44 44 43 44 44 43 42 43 44 46 48 49 50 52 51 49 48 48 47 48 48 46 44 43 40 36 35 38 38 35 32 31 29 25 24 26 26 24
33 34 36 37 39 40 41 43 44 45 46 47 48 48 48 48 48 47 45 44 45 47 46 45 45 45 45 45 46 46 46 46 46 45 45 46 47 47 46 47 47 46 46 46 47 47 48 50 51 52 51 49 48 48 48 48 49 48 45 40 36 34 34 36 37 35 33 31 28 26 27 29 27 24
31 33 34 36 37 39 41 42 43 44 45 46 47 47 47 47 46 45 45 46 47 47 47 47 47 47 45 45 45 45 46 46 46 45 46 47 47 46 46 46 48 49 49 48 48 48 48 49 50 48 46 45 46 47 47 47 45 42 38 34 32 32 32 32 33 34 34 32 30 29 30 29 26 24
27 29 31 32 34 36 38 40 42 43 44 44 45 45 44 42 41 40 40 40 40 41 41 43 43 43 41 40 40 40 41 41 41 40 40 40 41 41 43 45 46 48 49 48 47 47 47 49 48 44 40 40 42 43 44 42 38 33 31 28 25 28 31 31 31 33 34 31 30 31 31 29 26 24
21 23 25 27 27 28 30 33 35 37 38 40 41 41 40 39 37 36 35 34 33 33 34 35 36 36 35 34 34 35 34 34 34 33 33 34 35 37 40 43 44 44 45 45 44 44 45 47 48 43 37 35 35 36 36 35 32 31 29 25 21 23 28 30 30 31 31 29 29 30 30 28 27 25
18 19 21 22 21 21 22 24 25 27 29 31 33 34 35 36 35 32 30 29 28 29 31 33 33 33 32 31 29 28 28 29 30 32 32 33 34 34 36 39 41 40 41 43 43 44 44 45 46 44 38 33 33 34 35 34 32 27 24 23 22 22 26 29 29 29 29 29 29 31 30 28 27 26
16 17 18 18 17 17 18 19 20 22 24 25 27 29 31 34 35 32 28 27 27 29 30 30 27 25 24 25 25 27 29 31 34 35 36 36 36 36 36 37 38 38 39 40 42 43 44 44 44 43 38 33 32 34 34 32 28 22 19 21 24 24 25 29 30 29 28 28 29 30 28 25 24 23
12 13 14 15 15 15 15 16 18 19 19 20 22 23 25 28 31 31 30 29 28 29 30 29 28 27 28 28 30 32 34 35 35 37 37 37 37 37 38 37 37 36 37 38 40 42 43 43 43 43 39 35 34 35 32 28 25 23 21 22 23 23 25 28 29 29 29 29 28 27 25 23 21 19
12 12 12 13 14 14 14 14 15 15 14 14 15 16 18 21 23 24 24 24 24 25 26 28 29 30 31 32 33 34 35 35 35 36 36 35 35 35 35 35 34 34 36 37 39 39 40 39 37 36 35 34 34 33 27 22 21 22 22 22 22 23 26 28 29 29 29 28 26 25 24 24 23 21
11 12 12 12 12 13 13 13 13 13 13 13 13 14 16 18 19 20 21 23 24 23 23 25 26 27 29 31 32 32 32 32 32 32 32 32 32 31 32 32 33 34 35 36 36 35 34 32 29 28 28 26 23 21 17 16 18 20 22 23 23 24 25 26 26 26 26 25 25 25 25 24 24 24
10 10 11 11 11 11 11 11 11 11 11 11 12 13 14 15 17 19 20 22 23 21 20 20 21 23 25 26 26 26 25 25 25 25 26 27 27 29 31 32 32 33 33 32 32 31 28 23 20 18 17 16 15 16 17 18 19 20 23 24 24 24 25 24 23 21 21 21 22 24 25 24 24 25
9 10 11 11 12 13 12 12 11 10 10 10 9 9 9 9 9 10 10 10 11 10 11 12 13 15 17 19 19 19 18 16 15 14 15 16 17 20 23 24 24 26 27 25 24 22 19 14 12 12 13 16 18 19 20 19 18 19 22 23 23 23 24 23 22 21 20 20 21 22 22 23 25 27
11 11 12 13 14 14 13 13 12 12 12 12 12 12 11 9 8 7 6 5 4 3 4 5 6 7 9 10 10 9 7 5 5 6 7 9 10 11 12 12 12 15 17 16 14 13 12 10 10 12 16 19 20 19 19 19 17 17 18 20 21 22 22 21 21 22 22 23 23 21 20 21 23 25
14 15 16 16 16 16 16 15 14 14 13 13 13 13 13 12 11 9 8 6 5 4 3 3 3 3 3 3 2 1 2 2 2 3 4 5 5 4 4 3 4 7 8 9 9 10 11 11 13 16 19 20 19 17 16 16 16 15 15 16 18 19 20 21 21 22 23 23 23 23 23 23 23 22
14 16 17 18 18 18 19 18 18 17 17 16 15 15 14 14 13 12 12 11 10 9 9 8 7 7 7 7 7 6 6 5 5 5 5 4 4 4 3 2 2 4 4 5 7 10 12 13 16 19 20 20 17 15 13 14 14 14 15 15 15 16 17 18 19 20 21 21 21 22 24 24 21 19
Wind_Direction
219 219 216 215 215 221 234 250 260 263 268 270 254 254 272 277 270 262 257 260 269 279 282 282 280 272 268 272 276 284 291 297 297 285 280 278 274 284 297 305 313 312 306 302 289 275 269 266 266 261 260 267 268 263 259 260 267 274 275 272 280 295 290 259 244 250 257 256 265 270 261 245 230 218
226 224 220 219 220 223 233 244 253 257 260 265 262 259 260 264 274 276 270 269 275 279 279 279 279 276 277 277 276 281 287 291 291 284 281 284 285 289 295 301 306 307 305 302 296 285 277 272 270 261 255 259 259 258 260 253 253 263 271 273 283 296 286 255 237 241 252 255 258 260 254 244 229 219
227 227 225 224 223 224 234 244 250 252 254 259 266 265 254 253 270 279 273 273 276 276 277 278 276 277 279 279 278 281 284 288 288 281 275 278 286 293 300 305 306 307 311 311 305 297 287 279 275 269 259 255 253 256 258 248 247 258 267 272 284 289 274 254 246 246 249 253 254 250 242 232 224 217
226 228 230 229 223 223 234 243 247 249 251 254 258 266 261 257 269 279 276 276 277 277 279 278 272 272 275 277 279 280 282 286 286 281 274 274 285 296 304 306 302 303 313 314 310 303 294 285 279 273 265 258 252 249 251 250 252 257 261 268 278 277 264 258 258 257 255 254 251 242 230 225 222 215
231 232 231 227 222 224 234 242 245 246 249 250 250 255 262 260 269 280 280 277 275 274 278 278 272 270 272 273 274 276 279 283 284 280 276 278 287 296 302 301 292 292 301 302 300 299 296 288 281 276 272 265 255 248 247 249 253 254 253 259 267 265 265 274 272 264 258 253 247 232 224 224 219 210
236 238 236 229 224 226 233 240 244 247 250 250 246 249 257 262 270 281 279 273 270 271 277 278 273 270 271 269 269 273 277 280 279 278 278 280 286 293 297 294 285 286 291 293 292 291 293 290 283 280 278 276 267 254 248 247 249 249 244 249 262 263 259 266 273 270 260 248 239 228 224 223 215 208
235 239 240 237 231 231 235 240 244 248 252 253 250 250 254 260 269 279 278 271 266 267 272 275 274 274 273 269 268 273 276 277 278 279 279 279 284 291 293 288 283 282 283 289 290 285 289 291 287 285 283 284 279 265 258 252 249 248 242 241 253 258 246 243 259 270 264 247 235 228 223 218 213 208
234 238 241 242 239 238 240 243 245 248 252 255 258 257 253 255 265 276 277 270 264 262 267 273 276 276 273 268 267 270 273 276 278 278 278 279 283 288 287 283 282 280 279 286 290 285 285 287 288 290 288 289 286 278 273 262 252 249 242 240 251 255 242 243 261 270 267 251 236 227 219 215 212 208
235 237 240 242 242 242 244 246 247 249 252 257 262 260 251 251 261 271 274 270 261 257 263 270 270 268 269 269 268 270 272 274 275 275 276 278 281 284 285 284 284 283 281 286 291 289 287 285 287 291 290 289 289 286 281 269 253 241 235 242 255 253 243 254 266 266 265 253 236 223 217 213 212 210
237 238 240 242 243 245 246 247 248 250 253 257 258 253 247 251 261 268 271 270 263 257 259 263 262 264 269 272 272 273 273 273 273 273 273 275 278 282 286 286 287 288 287 285 286 287 286 286 288 290 290 287 288 286 280 268 250 232 231 241 249 247 251 264 265 262 261 250 231 220 217 213 210 212
239 241 243 244 246 248 248 249 250 250 252 253 250 246 246 252 259 264 267 269 268 264 260 258 260 267 272 273 272 273 272 270 268 268 268 272 278 284 288 288 288 288 286 282 281 281 282 285 288 288 286 285 285 282 276 265 249 235 233 238 242 249 260 264 261 260 258 244 228 219 217 214 211 212
239 242 245 247 250 252 252 254 254 252 249 247 245 243 245 251 256 259 263 266 267 266 263 262 265 271 274 271 268 267 266 266 268 270 271 275 281 286 287 285 284 283 283 281 279 279 281 284 287 287 284 283 281 278 274 262 245 239 237 239 246 255 259 257 257 258 251 237 227 221 218 215 214 213
238 241 244 247 250 255 258 260 259 254 247 244 243 242 243 248 252 255 258 261 263 264 264 265 267 269 270 268 265 264 266 271 277 278 275 275 279 281 281 280 280 280 281 280 280 281 282 284 286 287 285 283 281 277 275 257 238 237 240 243 249 254 257 259 258 251 240 231 226 222 219 216 215 214
239 241 245 248 251 256 259 261 262 257 250 245 244 244 244 246 249 252 255 255 256 258 261 264 266 267 268 270 269 269 272 277 280 278 276 277 277 276 276 275 276 278 279 281 283 284 284 283 284 285 285 285 283 281 278 263 245 242 243 245 249 251 256 262 258 244 234 230 226 224 220 216 215 215
243 244 246 249 251 254 257 261 265 264 255 248 245 244 245 247 249 251 254 255 257 260 262 264 265 265 268 271 273 274 276 276 277 277 278 279 276 274 274 274 276 279 282 285 286 286 285 284 283 283 284 284 284 283 280 272 262 255 250 250 253 256 259 260 253 241 233 229 226 223 219 216 214 215
244 244 246 248 252 255 257 261 266 264 254 247 245 243 243 246 249 250 252 255 260 264 265 265 263 262 264 268 270 272 274 275 277 276 274 275 277 276 275 275 279 284 286 286 286 286 285 283 281 282 282 282 282 280 276 273 270 265 261 259 260 261 263 263 256 242 233 230 226 221 217 215 215 217
239 241 245 248 253 257 259 261 264 261 252 246 245 245 243 245 248 250 252 255 259 264 266 265 263 262 263 266 268 270 272 273 274 272 269 273 277 276 274 277 283 287 285 282 283 284 282 281 280 280 280 279 277 274 273 273 273 268 263 260 261 261 260 261 260 249 236 229 225 220 215 215 215 217
236 239 242 245 249 255 258 260 265 265 257 249 247 247 247 246 248 250 253 256 259 263 266 266 265 264 264 266 268 271 272 272 272 272 272 275 279 278 278 280 281 280 276 275 276 277 277 277 277 278 278 275 273 271 271 271 270 268 265 260 258 258 255 254 255 251 239 228 222 218 215 214 216 217
237 238 240 243 249 253 257 260 263 264 261 256 252 252 252 252 252 254 256 259 261 264 266 267 268 268 267 267 269 270 271 272 272 273 274 276 278 277 276 275 273 272 272 270 269 271 275 276 275 277 278 275 271 270 268 266 265 266 265 261 258 256 254 251 247 244 236 227 220 217 215 215 216 217
241 242 244 248 252 254 256 257 259 260 262 262 261 259 259 259 259 259 260 262 264 265 266 267 268 269 269 268 269 270 271 271 271 271 271 271 270 270 270 270 270 271 271 269 268 270 274 275 276 278 278 275 273 271 268 264 262 262 261 260 258 255 252 250 246 240 232 224 219 217 216 215 215 216
247 249 251 254 255 255 255 256 258 260 260 261 261 262 262 262 262 261 262 263 265 265 265 266 267 268 269 269 270 271 270 269 267 264 263 264 265 266 267 268 270 272 272 272 271 270 272 274 275 276 275 273 272 270 267 262 259 259 258 255 253 253 250 246 243 238 231 224 219 216 215 215 214 214
250 251 253 257 259 258 257 257 260 261 260 260 262 263 264 264 264 264 264 265 266 266 266 267 268 268 268 268 269 270 268 267 266 264 264 266 267 266 267 269 272 274 274 275 272 267 268 271 271 270 269 268 268 267 264 260 256 255 255 252 248 249 248 244 238 233 228 224 219 214 213 213 213 213
250 252 255 258 260 260 258 257 258 259 260 262 265 267 267 266 265 266 266 267 267 268 268 268 268 268 268 268 269 270 268 267 268 268 268 269 268 267 268 270 271 270 272 276 273 267 267 270 269 267 265 263 266 267 263 260 259 256 255 251 247 245 245 241 235 229 225 222 217 213 212 212 212 213
255 256 258 259 260 260 259 258 257 257 258 261 265 268 269 266 265 266 267 268 268 269 269 269 269 269 269 268 268 268 267 266 266 267 268 269 268 268 270 271 270 269 273 278 277 272 271 271 269 269 267 264 266 269 267 265 263 259 254 250 247 244 242 238 232 225 222 219 215 212 212 213 213 215
257 257 258 259 259 259 258 258 257 257 257 259 265 269 270 268 267 267 267 268 269 270 270 271 271 271 270 268 266 265 265 264 264 264 266 267 268 269 270 271 271 272 275 279 279 275 273 272 269 269 267 264 265 268 267 265 262 258 254 251 247 244 240 235 228 220 216 214 212 211 211 213 215 217
260 260 260 261 261 260 260 259 257 255 255 257 263 268 270 271 271 269 267 267 267 268 269 270 270 270 269 267 265 264 265 265 265 266 267 268 269 271 272 271 271 273 276 279 279 276 273 272 271 270 268 266 265 265 264 262 260 256 252 250 246 240 237 232 224 216 212 210 208 208 210 212 213 215
263 263 263 264 263 263 263 261 259 257 256 258 262 265 267 270 271 270 266 264 264 265 266 267 268 267 267 267 267 266 266 267 269 271 272 272 272 272 273 272 272 274 277 278 277 275 272 271 271 271 270 268 265 262 260 259 259 256 253 252 247 239 234 229 222 215 212 209 206 205 207 208 209 211
263 263 263 263 263 263 263 262 262 261 261 262 264 265 266 267 268 267 265 263 262 263 264 265 266 266 266 267 268 269 271 273 275 276 276 275 273 271 269 270 271 272 274 274 273 272 271 270 270 270 269 267 264 262 262 260 259 258 255 251 244 237 231 223 216 213 211 207 204 205 206 205 205 206
262 263 262 262 262 262 262 262 262 262 262 264 264 265 265 265 264 265 265 263 263 263 263 264 265 266 267 269 270 272 274 275 275 275 274 273 272 270 269 268 268 269 270 270 270 270 270 269 269 269 267 266 265 265 264 260 257 256 255 249 242 235 225 215 211 212 208 204 205 209 210 210 208 207
261 261 262 262 262 263 262 262 261 261 261 261 261 261 261 261 261 262 262 262 262 263 263 264 266 267 268 270 270 270 270 270 270 270 271 272 273 272 271 270 269 269 270 271 271 271 270 268 268 267 265 266 266 264 261 258 255 253 252 249 242 231 218 210 209 209 204 204 208 211 212 212 211 211
263 263 263 263 263 263 263 262 262 261 261 260 260 259 259 259 260 260 259 259 260 261 262 264 265 266 267 268 269 269 270 272 272 272 272 273 273 274 273 272 271 271 273 273 273 271 270 270 268 265 263 264 264 262 259 258 256 253 250 246 240 231 220 211 207 203 201 204 209 212 211 209 208 209
268 267 267 266 266 265 265 263 262 262 261 261 261 261 261 261 261 262 262 261 261 263 264 266 267 268 269 269 270 271 272 273 274 273 273 272 273 274 273 271 271 272 273 274 273 272 272 270 265 260 259 260 260 260 259 255 251 248 245 239 232 227 221 213 205 199 199 204 207 209 209 207 207 207
272 271 271 270 270 270 270 269 267 266 264 263 262 261 261 262 262 264 265 265 264 265 266 267 268 269 269 269 269 270 271 271 272 273 273 273 274 275 274 271 271 273 274 275 277 276 273 268 260 255 254 254 253 253 253 249 243 239 236 232 225 219 215 212 206 200 199 203 206 207 208 208 207 207
276 275 274 273 272 272 272 272 271 271 270 269 267 265 264 265 265 265 266 267 268 269 269 268 267 268 267 266 267 267 267 269 271 272 273 275 276 276 274 271 272 274 274 275 277 277 273 270 265 259 251 246 243 243 246 247 246 241 234 230 225 218 210 206 206 203 202 205 208 207 209 210 208 206
283 281 280 279 279 279 278 276 275 274 273 272 271 271 271 270 269 267 265 266 269 271 270 268 267 266 265 264 264 265 266 268 271 272 273 276 277 277 275 274 275 276 275 274 275 274 272 270 269 264 252 240 236 235 237 240 242 241 233 221 213 213 209 205 204 206 205 208 212 213 213 213 211 209
294 291 289 288 288 290 291 290 287 283 279 274 272 271 270 270 272 273 271 269 270 270 269 268 266 262 261 261 262 264 267 270 273 274 275 276 277 278 277 276 277 278 277 275 274 271 268 267 267 264 255 243 233 228 227 226 226 229 230 215 199 200 206 205 203 206 208 210 213 216 218 219 217 216
303 299 296 295 296 296 297 299 298 293 287 280 273 269 265 265 267 269 269 268 269 269 269 269 266 261 260 261 264 269 273 276 278 278 278 277 277 277 277 277 277 277 278 276 274 271 268 267 265 259 251 241 230 223 220 218 215 215 221 213 198 193 200 205 204 206 209 212 215 218 221 223 222 223
320 313 306 303 304 304 304 304 303 298 293 287 279 273 269 266 265 266 267 268 268 267 266 267 269 270 269 270 273 277 279 280 279 278 278 276 275 275 275 276 276 277 275 273 271 268 265 263 260 256 251 245 236 227 215 205 202 203 204 205 201 196 198 203 205 207 209 210 213 217 221 224 225 229
336 335 327 318 315 313 313 314 309 304 303 300 290 282 277 272 269 268 267 266 266 266 267 270 273 273 272 273 275 278 278 277 276 275 275 275 275 274 274 275 276 276 272 266 262 260 258 255 252 250 246 241 238 234 222 203 197 196 191 190 196 200 200 201 204 207 210 210 210 215 221 226 230 235
345 345 342 336 330 323 317 313 310 304 299 295 289 283 278 273 269 265 263 265 271 275 277 277 276 274 272 272 273 274 275 275 274 274 275 276 276 276 277 275 274 272 267 260 255 253 250 248 244 240 235 231 232 233 222 202 196 194 187 185 192 200 203 204 204 206 209 210 211 216 223 228 232 235
3 360 1 2 0 356 345 333 326 323 317 308 299 293 286 280 275 269 266 270 276 279 278 277 277 277 277 276 274 272 271 271 270 270 272 273 274 276 275 272 269 266 259 252 249 249 248 245 242 236 230 222 213 206 200 196 197 197 191 189 192 198 204 208 211 212 213 214 216 222 228 233 237 239
23 24 29 29 26 24 21 13 5 1 359 356 350 338 326 315 303 292 283 280 283 286 289 289 288 287 283 278 273 269 267 266 268 270 273 277 281 281 275 268 264 261 254 247 247 250 248 243 237 224 210 200 195 192 191 190 193 194 193 192 195 200 204 209 215 220 224 226 227 230 233 236 238 240
45 47 47 45 42 42 41 37 34 32 29 28 28 25 20 15 6 356 345 332 321 317 312 306 302 295 289 283 276 268 263 272 294 305 306 305 300 291 279 267 255 251 249 246 246 243 234 223 215 205 199 196 194 192 189 184 183 188 193 197 203 208 212 216 220 223 228 233 237 243 249 251 249 249
62 59 57 55 53 51 49 49 48 47 44 42 44 46 48 48 44 37 30 21 16 16 11 2 1 2 10 16 15 32 99 92 53 23 1 338 323 313 307 282 239 232 235 237 230 219 210 203 198 194 193 193 191 189 187 184 184 191 201 209 216 218 219 220 221 222 225 230 234 241 250 257 260 262
63 59 55 54 51 50 51 52 53 53 52 51 52 53 55 56 54 51 49 47 43 39 35 30 29 38 52 61 65 73 89 100 102 96 90 84 80 76 71 82 158 189 200 208 210 204 197 193 190 187 186 186 185 186 188 191 196 205 215 222 227 228 228 228 227 228 231 235 236 239 245 252 257 259